カタログに戻る

CZ-6A DEB

運用中PO
NORAD 61133·DEBRIS·🇨🇳 China

打ち上げ Aug 6, 2024 から Taiyuan Satellite Launch Center

Loading…

次のパス (今後24時間)

TLE

最新Source: Space-Track

元期: Sep 14, 2026, 17:01 UTC

1 61133U 24140QB  26257.70968114  .00001475  00000-0  31450-3 0  9996
2 61133  88.9469 254.7840 0074098 297.1828  62.1843 14.56729855109449

AllMySatでCZ-6A DEBをリアルタイム追跡

Download on the App Store